Content
SEND FEEDBACK

Daily
Averages
Monthly
Summary
United States of America

GRAHAM, NORTH CAROLINA


Home > North America > United States > North Carolina
Elevation: 66 feet     Latitude: 36 04N     Longitude: 079 24W

WEATHER
 
SELECT A DAY
Number of Records: 173,942;   Date Range: 7/1/98 - 9/30/14
 
SHARE

PRINT THIS DATA

[ ← Previous Day ]
WEATHER ALMANAC - JANUARY 31, 2013
[ Next Day → ]
[ °C ]   °F
Weather ElementAverageHighLow
Temperature44.1 °F54 °F (1:54 am)34 °F (11:54 pm)
Dewpoint26.5 °F46.9 °F (1:54 am)19 °F (2:54 pm)
Humidity51.7 %83 % (3:54 am)33 % (2:54 pm)
Barometer29.79 in30.00 in (10:54 pm)29.46 in (1:54 am)
Wind Speed15.8 mph26.5 mph (2:54 pm)
Wind Gust34.5 mph (1:54 pm)
Weather ElementAverage
Visibility10 mi
Wind DirectionWSW (233.9 °)

Weather ElementTotal
Precipitation0.01 in
Heating Degree Days21 (Base 65)
Averaged from 23 records on January 31, 2013
WEATHER CONDITIONS BREAKOUT
WIND DIRECTION BREAKOUT
WEATHER BY HOUR - JANUARY 31, 2013
[ °C ]   °F
Local TimeTemperatureDewpointHumidityBarometerVisibilityWind DirectionWind SpeedGust SpeedPrecipitationEventsConditions
1:54 AM54.0 °F46.9 °F77 %29.46 in10.0 miSSW (210°)15.0 mph32.2 mph0.00 inOvercast
2:06 AM53.6 °F46.4 °F77 %29.48 in10.0 miSW (220°)16.1 mph32.2 mphOvercast
2:54 AM51.1 °F43.0 °F74 %29.48 in10.0 miSW (220°)19.6 mph32.2 mphOvercast
3:54 AM48.9 °F44.1 °F83 %29.52 in10.0 miSW (230°)19.6 mph29.9 mph0.00 inOvercast
4:54 AM48.0 °F39.0 °F71 %29.57 in10.0 miWSW (240°)15.0 mph21.9 mph0.01 inMostly Cloudy
5:54 AM46.0 °F30.0 °F54 %29.63 in10.0 miWSW (250°)19.6 mph31.1 mphPartly Cloudy
6:54 AM43.0 °F28.0 °F56 %29.69 in10.0 miWSW (240°)13.8 mph25.3 mphClear
7:54 AM41.0 °F24.1 °F51 %29.75 in10.0 miWest (270°)20.7 mph32.2 mphPartly Cloudy
8:54 AM42.1 °F25.0 °F51 %29.81 in10.0 miWest (270°)12.7 mph32.2 mphClear
9:54 AM43.0 °F21.9 °F43 %29.84 in10.0 miWSW (250°)20.7 mph31.1 mphClear
10:54 AM44.1 °F21.9 °F42 %29.86 in10.0 miWest (260°)17.3 mph24.2 mphClear
11:54 AM45.0 °F24.1 °F44 %29.86 in10.0 miWSW (240°)16.1 mph26.5 mphClear
12:54 PM46.0 °F23.0 °F40 %29.85 in10.0 miWest (260°)23.0 mph31.1 mphClear
1:54 PM46.9 °F19.9 °F34 %29.86 in10.0 miWSW (250°)25.3 mph34.5 mphScattered Clouds
2:54 PM46.9 °F19.0 °F33 %29.87 in10.0 miWSW (250°)26.5 mph34.5 mphClear
3:54 PM46.0 °F19.0 °F34 %29.91 in10.0 miWest (270°)21.9 mph32.2 mphPartly Cloudy
4:54 PM45.0 °F19.0 °F36 %29.93 in10.0 miWest (270°)17.3 mph24.2 mphClear
5:54 PM42.1 °F19.0 °F40 %29.95 in10.0 miWest (260°)18.4 mph24.2 mphClear
6:54 PM39.9 °F19.0 °F43 %29.98 in10.0 miWest (260°)9.2 mphClear
7:54 PM37.9 °F19.0 °F47 %29.99 in10.0 miWSW (240°)6.9 mphClear
9:54 PM35.1 °F19.0 °F52 %29.99 in10.0 miCalmClear
10:54 PM35.1 °F19.0 °F52 %30.00 in10.0 miSSW (210°)3.5 mphClear
11:54 PM34.0 °F19.9 °F56 %29.99 in10.0 miSSW (210°)5.8 mphClear
Hourly data recorded from KBUY, located miles away from Graham, North Carolina







STORIES FROM OUR PARTNERS